When you browse on this site, cookies collect data to enhance your experience and personalize the content and advertising you see.
Visit our Privacy Policy to learn more. By continuing to use the site, you agree to this use of cookies and data.
  • In Latvia
  • List of Countries
  • For 7 days
  • Water Temperature
  • Satellite Maps
  • Weather Map
  • Weather Widgets
  • user-avatar
    Login

    Hourly Weather Minsk

    Today, 24 March, Sunday

    Time Temperature Precipitation Wind Pressure Humidity
    00:00 +3°C° 0.1 mm 4 mps 744 mmHg 58%
    01:00 +4°C° 0.1 mm 4 mps 744 mmHg 62%
    02:00 +3°C° 0 mm 4 mps 743 mmHg 66%
    03:00 +3°C° 0 mm 4 mps 743 mmHg 74%
    04:00 +3°C° 0 mm 4 mps 743 mmHg 82%
    05:00 +2°C° 0 mm 5 mps 742 mmHg 90%
    06:00 +2°C° 0 mm 5 mps 743 mmHg 88%
    07:00 +2°C° 0 mm 5 mps 743 mmHg 86%
    08:00 +2°C° 0 mm 6 mps 743 mmHg 82%
    09:00 +3°C° 0 mm 6 mps 743 mmHg 72%
    10:00 +4°C° 0 mm 6 mps 743 mmHg 62%
    11:00 +5°C° 0 mm 6 mps 743 mmHg 53%
    12:00 +5°C° 0 mm 6 mps 743 mmHg 49%
    13:00 +7°C° 0 mm 6 mps 743 mmHg 46%
    14:00 +7°C° 0 mm 6 mps 743 mmHg 42%
    15:00 +7°C° 0 mm 6 mps 742 mmHg 43%
    16:00 +7°C° 0 mm 5 mps 742 mmHg 44%
    17:00 +6°C° 0 mm 5 mps 742 mmHg 45%
    18:00 +5°C° 0 mm 4 mps 742 mmHg 50%
    19:00 +4°C° 0 mm 4 mps 742 mmHg 54%
    20:00 +3°C° 0 mm 3 mps 742 mmHg 59%
    21:00 +3°C° 0 mm 3 mps 742 mmHg 62%
    22:00 +2°C° 0 mm 3 mps 742 mmHg 65%
    23:00 +2°C° 0 mm 2 mps 741 mmHg 68%

    Tomorrow, 25 March, Monday

    Time Temperature Precipitation Wind Pressure Humidity
    00:00 +2°C° 0 mm 2 mps 741 mmHg 70%
    01:00 +2°C° 0 mm 2 mps 741 mmHg 72%
    02:00 +1°C° 0 mm 2 mps 741 mmHg 75%
    03:00 +1°C° 0 mm 2 mps 740 mmHg 75%
    04:00 +1°C° 0 mm 2 mps 740 mmHg 76%
    05:00 +2°C° 0 mm 1 mps 739 mmHg 77%
    06:00 +1°C° 0 mm 2 mps 739 mmHg 74%
    07:00 +2°C° 0 mm 2 mps 739 mmHg 72%
    08:00 +2°C° 0 mm 2 mps 739 mmHg 69%
    09:00 +3°C° 0 mm 2 mps 738 mmHg 60%
    10:00 +4°C° 0 mm 3 mps 738 mmHg 52%
    11:00 +5°C° 0 mm 3 mps 738 mmHg 43%
    12:00 +7°C° 0 mm 3 mps 738 mmHg 41%
    13:00 +7°C° 0 mm 3 mps 737 mmHg 40%
    14:00 +8°C° 0 mm 3 mps 737 mmHg 38%
    15:00 +7°C° 0 mm 3 mps 737 mmHg 41%
    16:00 +7°C° 0 mm 2 mps 736 mmHg 43%
    17:00 +7°C° 0 mm 2 mps 736 mmHg 45%
    18:00 +6°C° 0 mm 2 mps 736 mmHg 51%
    19:00 +5°C° 0 mm 2 mps 736 mmHg 56%
    20:00 +4°C° 0 mm 2 mps 736 mmHg 61%
    21:00 +4°C° 0.2 mm 2 mps 736 mmHg 65%
    22:00 +4°C° 0.2 mm 2 mps 736 mmHg 69%
    23:00 +2°C° 0.2 mm 3 mps 736 mmHg 73%

    Day after tomorrow, 26 March, Tuesday

    Time Temperature Precipitation Wind Pressure Humidity
    00:00 +2°C° 0.1 mm 3 mps 736 mmHg 75%
    01:00 +1°C° 0.1 mm 3 mps 736 mmHg 77%
    02:00 +1°C° 0.1 mm 3 mps 736 mmHg 78%
    03:00 -1°C° 0 mm 4 mps 736 mmHg 80%
    04:00 -1°C° 0 mm 5 mps 737 mmHg 81%
    05:00 -2°C° 0 mm 6 mps 737 mmHg 83%
    06:00 -3°C° 0 mm 6 mps 737 mmHg 79%
    07:00 -3°C° 0 mm 6 mps 738 mmHg 75%
    08:00 -4°C° 0 mm 6 mps 738 mmHg 71%
    09:00 -3°C° 0 mm 6 mps 738 mmHg 64%
    10:00 -1°C° 0 mm 6 mps 738 mmHg 56%
    11:00 +1°C° 0 mm 6 mps 738 mmHg 49%
    12:00 0°C° 0 mm 7 mps 738 mmHg 49%
    13:00 0°C° 0 mm 7 mps 737 mmHg 49%
    14:00 +1°C° 0 mm 8 mps 737 mmHg 49%
    15:00 0°C° 0.4 mm 7 mps 736 mmHg 58%
    16:00 -1°C° 0.4 mm 6 mps 736 mmHg 67%
    17:00 -1°C° 0.4 mm 5 mps 735 mmHg 76%
    18:00 -1°C° 0.9 mm 5 mps 735 mmHg 79%
    19:00 -2°C° 0.9 mm 5 mps 735 mmHg 83%
    20:00 -2°C° 0.9 mm 5 mps 735 mmHg 86%
    21:00 -2°C° 0.2 mm 5 mps 736 mmHg 85%
    22:00 -4°C° 0.2 mm 6 mps 736 mmHg 83%
    23:00 -4°C° 0.2 mm 7 mps 737 mmHg 82%

    27 March, Wednesday

    Time Temperature Precipitation Wind Pressure Humidity
    00:00 -4°C° 0 mm 7 mps 738 mmHg 83%
    01:00 -6°C° 0 mm 7 mps 739 mmHg 83%
    02:00 -6°C° 0 mm 7 mps 740 mmHg 83%
    03:00 -6°C° 0 mm 6 mps 741 mmHg 84%
    04:00 -6°C° 0 mm 6 mps 741 mmHg 85%
    05:00 -8°C° 0 mm 6 mps 742 mmHg 86%
    06:00 -6°C° 0 mm 6 mps 743 mmHg 84%
    07:00 -6°C° 0 mm 6 mps 744 mmHg 82%
    08:00 -6°C° 0 mm 6 mps 745 mmHg 81%
    09:00 -5°C° 0 mm 6 mps 745 mmHg 76%
    10:00 -4°C° 0 mm 6 mps 746 mmHg 72%
    11:00 -3°C° 0 mm 6 mps 746 mmHg 68%
    12:00 -2°C° 0 mm 6 mps 746 mmHg 64%
    13:00 -2°C° 0 mm 6 mps 747 mmHg 60%
    14:00 -1°C° 0 mm 6 mps 747 mmHg 57%
    15:00 0°C° 0 mm 5 mps 747 mmHg 57%
    16:00 0°C° 0 mm 5 mps 747 mmHg 57%
    17:00 0°C° 0 mm 4 mps 748 mmHg 57%
    18:00 0°C° 0 mm 3 mps 748 mmHg 61%
    19:00 -1°C° 0 mm 3 mps 749 mmHg 66%
    20:00 -2°C° 0 mm 2 mps 749 mmHg 70%
    21:00 -3°C° 0 mm 2 mps 750 mmHg 71%
    22:00 -3°C° 0 mm 2 mps 750 mmHg 72%
    23:00 -3°C° 0 mm 2 mps 750 mmHg 72%

    28 March, Thursday

    Time Temperature Precipitation Wind Pressure Humidity
    00:00 -3°C° 0 mm 2 mps 751 mmHg 72%
    01:00 -3°C° 0 mm 2 mps 751 mmHg 72%
    02:00 -3°C° 0 mm 2 mps 751 mmHg 72%
    03:00 -3°C° 0 mm 2 mps 751 mmHg 72%
    04:00 -2°C° 0 mm 1 mps 752 mmHg 72%
    05:00 -2°C° 0 mm 1 mps 752 mmHg 72%
    06:00 -1°C° 0 mm 1 mps 752 mmHg 69%
    07:00 0°C° 0 mm 1 mps 753 mmHg 66%
    08:00 0°C° 0 mm 1 mps 753 mmHg 62%
    09:00 +2°C° 0 mm 1 mps 753 mmHg 57%
    10:00 +3°C° 0 mm 1 mps 754 mmHg 51%
    11:00 +4°C° 0 mm 1 mps 754 mmHg 46%
    12:00 +4°C° 0 mm 1 mps 754 mmHg 43%
    13:00 +4°C° 0 mm 2 mps 753 mmHg 41%
    14:00 +5°C° 0 mm 2 mps 753 mmHg 38%
    15:00 +5°C° 0 mm 2 mps 753 mmHg 42%
    16:00 +4°C° 0 mm 2 mps 753 mmHg 46%
    17:00 +4°C° 0 mm 2 mps 753 mmHg 49%
    18:00 +3°C° 0 mm 2 mps 753 mmHg 53%
    19:00 +2°C° 0 mm 2 mps 753 mmHg 57%
    20:00 +1°C° 0 mm 2 mps 753 mmHg 61%
    21:00 +1°C° 0 mm 2 mps 753 mmHg 64%
    22:00 0°C° 0 mm 3 mps 752 mmHg 67%
    23:00 -1°C° 0 mm 3 mps 752 mmHg 70%

    29 March, Friday

    Time Temperature Precipitation Wind Pressure Humidity
    00:00 0°C° 0 mm 3 mps 752 mmHg 75%
    01:00 0°C° 0 mm 3 mps 752 mmHg 79%
    02:00 0°C° 0 mm 3 mps 752 mmHg 83%
    03:00 0°C° 0 mm 3 mps 752 mmHg 87%
    04:00 0°C° 0 mm 3 mps 751 mmHg 91%
    05:00 -2°C° 0 mm 4 mps 751 mmHg 96%
    06:00 -1°C° 0 mm 4 mps 751 mmHg 93%
    07:00 0°C° 0 mm 4 mps 751 mmHg 90%
    08:00 +1°C° 0 mm 5 mps 751 mmHg 88%
    09:00 +2°C° 0 mm 5 mps 751 mmHg 82%
    10:00 +5°C° 0 mm 5 mps 750 mmHg 75%
    11:00 +7°C° 0 mm 5 mps 750 mmHg 69%
    12:00 +8°C° 0 mm 5 mps 750 mmHg 68%
    13:00 +9°C° 0 mm 6 mps 750 mmHg 66%
    14:00 +10°C° 0 mm 6 mps 749 mmHg 65%
    15:00 +10°C° 0 mm 5 mps 749 mmHg 66%
    16:00 +10°C° 0 mm 5 mps 748 mmHg 66%
    17:00 +11°C° 0 mm 4 mps 748 mmHg 67%
    18:00 +8°C° 0 mm 4 mps 748 mmHg 71%
    19:00 +7°C° 0 mm 4 mps 748 mmHg 75%
    20:00 +5°C° 0 mm 3 mps 748 mmHg 79%
    21:00 +5°C° 0 mm 4 mps 748 mmHg 82%
    22:00 +5°C° 0 mm 4 mps 748 mmHg 85%
    23:00 +5°C° 0 mm 4 mps 747 mmHg 88%
    Show more